Winslow, AZ

11:34 PM MST on January 19, 2017 (GMT -0700)
Winslow-Lindbergh Regional

Weather History for KINW - October, 2013

Change the Weather History Date:

Thursday, October 31, 2013

  Actual Average Record
Temperature  
Mean Temperature 43 °F 50 °F  
Max Temperature 60 °F 68 °F 81 °F (1915)
Min Temperature 25 °F 34 °F 18 °F (1979)
Degree Days  
Heating Degree Days 22 15  
Month to date heating degree days 380 276  
Since 1 July heating degree days 413 306  
Cooling Degree Days 0 0  
Month to date cooling degree days 0 7  
Year to date cooling degree days 1380 1208  
Moisture  
Dew Point 22 °F    
Average Humidity 49    
Maximum Humidity 75    
Minimum Humidity 22    
Precipitation  
Precipitation 0.00 in 0.02 in 0.77 in (1957)
Month to date precipitation 0.29 0.53  
Year to date precipitation 6.92 5.94  
Sea Level Pressure  
Sea Level Pressure 30.13 in    
Wind  
Wind Speed 4 mph (South)    
Max Wind Speed 12 mph    
Max Gust Speed 15 mph    
Visibility 10 miles    
Events      
T = Trace of Precipitation, MM = Missing Value Source: NWS Daily Summary

Daily Weather History Graph

Daily Weather History Graph

Search for Another Location

Airport or City:

Trip Planner

Search our weather history database for the weather conditions in past years. The results will help you decide how hot, cold, wet, or windy it might be!

Date:

Astronomy

Oct. 31, 2013 Rise Set
Actual Time 6:43 AM MST 5:29 PM MST
Civil Twilight 6:17 AM MST 5:55 PM MST
Nautical Twilight 5:47 AM MST 6:25 PM MST
Astronomical Twilight 5:17 AM MST 6:54 PM MST
Moon 3:42 AM MST (10/31) 3:44 PM MST (10/31)
Length of Visible Light 11h 38m
Length of Day
10h 45m
Waning Crescent, 9% of the Moon is Illuminated
Oct 31
Waning Crescent
Nov 3
New
Nov 9
First Quarter
Nov 17
Full
Nov 25
Last Quarter

Hourly Weather History & Observations

Time (MST) Temp. Windchill Dew Point Humidity Pressure Visibility Wind Dir Wind Speed Gust Speed Precip Events Conditions
12:56 AM 37.0 °F - 24.1 °F 59% 30.10 in 10.0 mi Calm Calm - N/A   Clear
1:56 AM 28.9 °F 25.2 °F 21.0 °F 72% 30.11 in 10.0 mi SW 3.5 mph - N/A   Clear
2:56 AM 28.0 °F - 19.9 °F 72% 30.12 in 10.0 mi Calm Calm - N/A   Clear
3:56 AM 30.0 °F - 21.0 °F 69% 30.12 in 10.0 mi Calm Calm - N/A   Clear
4:56 AM 28.9 °F 23.9 °F 21.0 °F 72% 30.13 in 10.0 mi SE 4.6 mph - N/A   Clear
5:56 AM 27.0 °F - 19.9 °F 75% 30.16 in 10.0 mi Calm Calm - N/A   Clear
6:56 AM 25.0 °F 19.3 °F 18.0 °F 75% 30.23 in 10.0 mi ESE 4.6 mph - N/A   Clear
7:56 AM 32.0 °F 26.4 °F 21.9 °F 66% 30.20 in 10.0 mi East 5.8 mph - N/A   Clear
8:56 AM 39.0 °F 36.8 °F 24.1 °F 55% 30.21 in 10.0 mi ESE 3.5 mph - N/A   Clear
9:56 AM 45.0 °F 43.5 °F 25.0 °F 46% 30.19 in 10.0 mi ESE 3.5 mph - N/A   Clear
10:56 AM 51.1 °F - 26.1 °F 38% 30.16 in 10.0 mi ENE 3.5 mph - N/A   Clear
11:56 AM 54.0 °F - 24.1 °F 31% 30.13 in 10.0 mi Variable 4.6 mph - N/A   Clear
12:56 PM 55.0 °F - 21.9 °F 28% 30.09 in 10.0 mi Calm Calm - N/A   Clear
1:56 PM 57.9 °F - 19.9 °F 23% 30.08 in 10.0 mi Calm Calm - N/A   Clear
2:56 PM 60.1 °F - 21.0 °F 22% 30.08 in 10.0 mi Variable 5.8 mph - N/A   Clear
3:56 PM 59.0 °F - 21.9 °F 24% 30.07 in 10.0 mi North 6.9 mph - N/A   Clear
4:56 PM 57.9 °F - 21.9 °F 25% 30.07 in 10.0 mi North 8.1 mph - N/A   Clear
5:56 PM 53.1 °F - 23.0 °F 31% 30.10 in 10.0 mi NW 3.5 mph - N/A   Clear
6:56 PM 44.1 °F 40.8 °F 19.9 °F 38% 30.14 in 10.0 mi SW 5.8 mph - N/A   Clear
7:56 PM 41.0 °F 36.4 °F 19.0 °F 41% 30.13 in 10.0 mi SW 6.9 mph - N/A   Clear
8:56 PM 37.0 °F 33.3 °F 19.0 °F 48% 30.15 in 10.0 mi WSW 4.6 mph - N/A   Clear
9:56 PM 39.9 °F - 21.0 °F 47% 30.14 in 10.0 mi Calm Calm - N/A   Clear
10:56 PM 36.0 °F 33.3 °F 19.9 °F 52% 30.14 in 10.0 mi SSW 3.5 mph - N/A   Clear
11:56 PM 33.1 °F 27.7 °F 19.0 °F 56% 30.15 in 10.0 mi West 5.8 mph - N/A   Clear